Content
SEND FEEDBACK

Daily
Averages
Monthly
Summary
United States of America

YIGO, GUAM


Home > North America > United States > Guam
Elevation: 530 feet     Latitude: 13 32N     Longitude: 144 53E

WEATHER
 
SELECT A DAY
Number of Records: 213,760;   Date Range: 1/1/95 - 10/19/14
 
SHARE

PRINT THIS DATA

[ ← Previous Day ]
WEATHER ALMANAC - AUGUST 7, 2014
[ Next Day → ]
[ °C ]   °F
Weather ElementAverageHighLow
Temperature82.5 °F87.1 °F (10:54 am)79 °F (7:54 pm)
Dewpoint76.4 °F79 °F (2:54 pm)75 °F (5:54 am)
Humidity82.4 %94 % (11:54 pm)67 % (10:54 am)
Barometer29.78 in29.83 in (2:54 am)29.73 in (3:54 pm)
Wind Speed4.4 mph10.4 mph (12:49 am)
Wind Gust17.3 mph (1:18 pm)
Weather ElementAverage
Visibility9.6 mi
Wind DirectionENE (71.8 °)

Weather ElementTotal
Precipitation0.12 in
Cooling Degree Days18.1 (Base 65)
Growing Degree Days33.1 (Base 50)
Averaged from 34 records on August 7, 2014
WEATHER CONDITIONS BREAKOUT
WIND DIRECTION BREAKOUT
WEATHER BY HOUR - AUGUST 7, 2014
[ °C ]   °F
Local TimeTemperatureDewpointHumidityBarometerVisibilityWind DirectionWind SpeedGust SpeedPrecipitationEventsConditions
12:54 AM80.1 °F77.0 °F90 %29.79 in10.0 miNE (40°)3.5 mphClear
1:54 AM79.0 °F77.0 °F94 %29.77 in10.0 miCalmPartly Cloudy
2:54 AM79.0 °F77.0 °F94 %29.76 in10.0 miNNE (30°)4.6 mphClear
3:54 AM79.0 °F75.9 °F90 %29.75 in10.0 miNE (40°)3.5 mphClear
4:54 AM79.0 °F75.9 °F90 %29.76 in10.0 miENE (70°)4.6 mphClear
5:54 AM79.0 °F75.0 °F88 %29.77 in10.0 miCalmMostly Cloudy
6:54 AM79.0 °F75.9 °F90 %29.78 in10.0 miCalmClear
7:54 AM82.0 °F78.1 °F88 %29.80 in10.0 miESE (110°)3.5 mphPartly Cloudy
8:54 AM84.0 °F75.9 °F76 %29.81 in10.0 miESE (120°)8.1 mphPartly Cloudy
9:54 AM84.9 °F75.0 °F72 %29.81 in10.0 miEast (80°)8.1 mphPartly Cloudy
10:54 AM87.1 °F75.0 °F67 %29.80 in10.0 miEast (100°)8.1 mphScattered Clouds
11:54 AM87.1 °F75.0 °F67 %29.78 in10.0 miESE (120°)9.2 mphPartly Cloudy
12:50 PM86.0 °F75.2 °F70 %29.78 in10.0 miSE (130°)8.1 mphMostly Cloudy
12:54 PM87.1 °F77.0 °F72 %29.76 in10.0 miESE (120°)8.1 mphMostly Cloudy
1:18 PM84.2 °F75.2 °F74 %29.77 in10.0 miESE (110°)9.2 mph17.3 mphScattered Clouds
1:54 PM86.0 °F75.9 °F72 %29.75 in10.0 miESE (110°)10.4 mphScattered Clouds
2:44 PM82.4 °F78.8 °F89 %29.77 in2.5 miEast (80°)5.8 mph0.03 inRainLight Rain
2:46 PM82.4 °F78.8 °F89 %29.77 in5.0 miESE (110°)4.6 mph0.03 inRainLight Rain
2:54 PM84.0 °F79.0 °F85 %29.75 in10.0 miESE (110°)5.8 mph0.03 inMostly Cloudy
3:54 PM86.0 °F75.9 °F72 %29.73 in10.0 miSSE (150°)8.1 mphPartly Cloudy
4:54 PM84.9 °F75.9 °F74 %29.73 in10.0 miESE (110°)8.1 mphClear
5:54 PM84.9 °F77.0 °F77 %29.74 in10.0 miSE (140°)8.1 mphScattered Clouds
6:54 PM82.9 °F75.9 °F79 %29.75 in10.0 miSE (140°)4.6 mphScattered Clouds
7:07 PM82.4 °F75.2 °F79 %29.78 in10.0 miSE (140°)4.6 mphMostly Cloudy
7:26 PM82.4 °F75.2 °F79 %29.79 in10.0 miSE (140°)5.8 mphScattered Clouds
7:54 PM82.0 °F75.9 °F82 %29.77 in10.0 miSE (140°)4.6 mphPartly Cloudy
8:54 PM82.0 °F75.9 °F82 %29.78 in10.0 miCalmClear
9:42 PM82.4 °F75.2 °F79 %29.82 in10.0 miCalmMostly Cloudy
9:54 PM81.0 °F77.0 °F88 %29.80 in10.0 miCalmOvercast
10:18 PM80.6 °F77.0 °F89 %29.82 in10.0 miCalm0.01 inMostly Cloudy
10:39 PM80.6 °F78.8 °F94 %29.83 in10.0 miCalm0.01 inMostly Cloudy
10:54 PM81.0 °F77.0 °F88 %29.81 in10.0 miCalm0.01 inMostly Cloudy
11:01 PM80.6 °F77.0 °F89 %29.82 in10.0 miCalmScattered Clouds
11:54 PM79.0 °F77.0 °F94 %29.80 in10.0 miCalm0.00 inMostly Cloudy
Hourly data recorded from PGUM, located miles away from Yigo, Guam







STORIES FROM OUR PARTNERS